This is the latest recevied weather packets stored in our database for station/object KF7ROW. If no packets are shown the sender has not sent any weather packets the latest 10 day(s).
| Time | Temp. | Humidity | Pressure | Rain* | Wind** | Luminosity | Snow |
|---|---|---|---|---|---|---|---|
| 1778030543 | 13.89° C | 88% | 1020.7 hPa | 0 mm | - | 81 W/m² | - |
| 1778030240 | 13.89° C | 89% | 1020.6 hPa | 0 mm | - | 89 W/m² | - |
| 1778029936 | 13.89° C | 88% | 1020.7 hPa | 0 mm | - | 100 W/m² | - |
| 1778029635 | 13.89° C | 89% | 1020.5 hPa | 0 mm | - | 111 W/m² | - |
| 1778029332 | 13.89° C | 88% | 1020.7 hPa | 0 mm | - | 115 W/m² | - |
| 1778029029 | 13.89° C | 88% | 1020.7 hPa | 0 mm | - | 118 W/m² | - |
| 1778028725 | 13.89° C | 88% | 1020.5 hPa | 0 mm | - | 136 W/m² | - |
| 1778028416 | 13.89° C | 87% | 1020.6 hPa | 0 mm | - | 144 W/m² | - |
| 1778028114 | 13.89° C | 87% | 1020.6 hPa | 0 mm | - | 156 W/m² | - |
| 1778027809 | 14.44° C | 86% | 1020.6 hPa | 0 mm | - | 160 W/m² | - |
| 1778027506 | 14.44° C | 85% | 1020.6 hPa | 0 mm | - | 159 W/m² | - |
| 1778027202 | 14.44° C | 85% | 1020.7 hPa | 0 mm | - | 161 W/m² | - |
| 1778026898 | 13.89° C | 85% | 1020.7 hPa | 0 mm | - | 169 W/m² | - |
| 1778026594 | 13.89° C | 85% | 1020.7 hPa | 0 mm | - | 192 W/m² | - |
| 1778026292 | 14.44° C | 86% | 1020.6 hPa | 0 mm | - | 192 W/m² | - |
| 1778025989 | 14.44° C | 83% | 1020.7 hPa | 0 mm | - | 196 W/m² | - |
| 1778025686 | 14.44° C | 84% | 1020.6 hPa | 0 mm | - | 201 W/m² | - |
| 1778025383 | 14.44° C | 82% | 1020.6 hPa | 0 mm | - | 208 W/m² | - |
| 1778025081 | 14.44° C | 83% | 1020.5 hPa | 0 mm | - | 201 W/m² | - |
| 1778024778 | 14.44° C | 82% | 1020.6 hPa | 0 mm | - | 190 W/m² | - |
| 1778024474 | 14.44° C | 82% | 1020.8 hPa | 0 mm | - | 193 W/m² | - |
| 1778024172 | 14.44° C | 83% | 1020.8 hPa | 0 mm | - | 187 W/m² | - |
| 1778023869 | 14.44° C | 82% | 1020.8 hPa | 0 mm | - | 198 W/m² | - |
| 1778023567 | 15° C | 81% | 1020.7 hPa | 0 mm | - | 202 W/m² | - |
| 1778023264 | 15° C | 80% | 1020.7 hPa | 0 mm | - | 217 W/m² | - |
* Rain latest hour (hover to see other rain measurements)
** Current wind speed in m/s (hover to see current wind gust speed)